[[{"header":{"parameterUnit":"m.s-1","parameterCategory":1,"la1":30.2991,"la2":30.254,"lo1":-89.0895,"lo2":-89.0444,"dy":0.0017,"dx":0.0017,"nx":28,"ny":28,"refTime":"2024-07-12T03:00:00:Z","depth":0,"parameterNumber":2,"parameterNumberName":"U-component_of_WINDS"},"data":[0,0,0,0,0,0,0,0,0,0,0,0,0,0,0,0,0,0,0,0,0,0,0,0,0,0,0,0,0,0,0,0,0,0,0,0,0,0,0,0,0,0,0,0,0,0,0,0,0,0,0,0,0,0,0,0,0,0,4.0695,4.0696,0,4.0853,4.0855,4.0856,4.0807,4.0804,4.08,4.0797,4.0962,4.0969,4.0976,0,0,0,0,0,0,0,0,0,0,0,0,0,4.035,4.0356,4.0694,4.0696,4.0698,4.0853,4.0855,4.0857,4.0808,4.0804,4.08,4.0796,4.0959,4.0968,4.0977,0,0,0,0,0,0,0,0,0,0,0,0,0,4.0503,4.0358,4.0694,4.0692,4.0694,4.0852,4.0855,4.0858,4.0809,4.0804,4.0798,4.0794,4.0956,4.0967,4.0978,4.1148,0,0,4.1013,4.1017,0,0,0,0,0,0,0,0,4.0494,4.0516,4.0691,4.0693,4.0695,4.0805,4.0793,4.0955,4.081,4.0765,4.0797,4.0791,4.0914,4.0928,4.0969,4.1156,4.1163,4.1014,4.102,4.1025,4.1028,0,0,0,0,0,0,0,4.0484,4.0509,4.0757,4.0693,4.0696,4.0684,4.07,4.0824,4.0866,4.0769,4.0765,4.0785,4.0914,4.0958,4.0972,4.1166,4.1013,4.1023,4.103,4.1035,4.1497,4.1502,0,0,0,0,0,0,4.0472,4.05,4.0752,4.0762,4.058,4.0694,4.0712,4.0775,4.0864,4.0873,4.0789,4.0782,4.0941,4.0959,4.0978,4.1181,4.1025,4.1036,4.1042,4.1492,4.1498,4.1504,0,0,0,0,0,0,4.0464,4.0495,4.0746,4.063,4.0661,4.0705,4.0776,4.0781,4.0825,4.088,4.0887,4.0826,4.0938,4.0962,4.1106,4.1186,4.1041,4.1051,4.1485,4.1494,4.1501,4.1589,0,0,0,0,0,0,4.0455,4.0492,4.0558,4.0632,4.0668,4.0871,4.0781,4.0787,4.0844,4.0836,4.0917,4.0925,4.0936,4.1089,4.1117,4.1199,4.106,4.1478,4.1489,4.1499,4.1579,4.1599,4.1617,0,0,0,0,0,4.0443,4.0577,4.0561,4.0592,4.075,4.0876,4.0896,4.0905,4.0851,4.0916,4.0951,4.0923,4.1173,4.1104,4.1135,4.1221,4.1473,4.1486,4.1498,4.1571,4.1595,4.1616,0,0,0,0,0,0,4.0512,4.0587,4.057,4.0733,4.0798,4.0867,4.095,4.0931,4.1014,4.1004,4.1012,4.1031,4.1177,4.1214,4.1136,4.1389,4.1315,4.1334,4.136,4.1384,4.1402,4.1389,4.1069,0,0,0,0,0,4.0547,4.0642,4.0702,4.084,4.0873,4.0906,4.0961,4.0962,4.1031,4.1059,4.1104,4.1172,4.1265,4.1327,4.1416,4.1585,4.16,4.1659,4.1678,4.1693,4.1709,4.1798,4.1824,4.1545,4.1545,4.1545,0,0,4.0618,4.0671,4.0731,4.0855,4.0906,4.1004,4.093,4.1038,4.111,4.1075,4.1212,4.1248,4.1324,4.148,4.1551,4.1515,4.179,4.1709,4.1721,4.1728,4.1814,4.184,4.1863,4.1554,4.1552,4.1551,0,0,4.0799,4.0849,4.0968,4.102,4.1097,4.1117,4.1146,4.1218,4.1239,4.1377,4.1352,4.1439,4.16,4.1654,4.1703,4.1902,4.1878,4.1931,4.2028,4.2115,4.2137,4.2156,4.2225,4.225,4.1947,4.1948,4.1948,0,4.0878,4.1025,4.1031,4.114,4.1195,4.1166,4.1286,4.1336,4.1439,4.1477,4.1436,4.1636,4.1685,4.1852,4.19,4.1942,4.1973,4.1921,4.2133,4.2153,4.2171,4.2236,4.2262,4.1953,4.1953,4.1952,4.1951,0,4.1118,4.122,4.1306,4.1404,4.1469,4.1583,4.1606,4.1671,4.1666,4.1691,4.183,4.1888,4.1987,4.2027,4.2025,4.2194,4.2168,4.2131,4.2055,4.2203,4.2265,4.229,4.1962,4.1959,4.1958,4.1956,0,0,4.1347,4.1445,4.1477,4.152,4.1602,4.1681,4.1793,4.1889,4.1943,4.2015,4.2108,4.2244,4.2208,4.2264,4.2267,4.2343,4.2494,4.2295,4.2297,4.2328,4.268,4.2706,4.2735,4.2479,4.2483,4.2487,4.2673,0,4.1533,4.1728,4.1736,4.1915,4.2008,4.1981,4.2078,4.2139,4.2165,4.2247,4.2276,4.2372,4.2319,4.2351,4.2426,4.2459,4.2564,4.2447,4.2564,4.2568,4.2544,4.2768,4.2797,4.2969,4.2697,4.2701,4.2704,0,4.1776,4.1852,4.2039,4.2105,4.2145,4.2232,4.2319,4.2399,4.2466,4.248,4.254,4.2532,4.2645,4.2567,4.2723,4.2643,4.2692,4.2715,4.2722,4.2732,4.2644,4.2782,4.3025,4.3049,4.2742,4.2739,4.2737,0,4.1921,4.2072,4.2202,4.224,4.2321,4.2383,4.2419,4.2482,4.2538,4.2614,4.265,4.274,4.2788,4.2857,4.2873,4.2815,4.3028,4.2952,4.3041,4.304,4.3085,4.3082,4.3337,4.3121,4.312,4.312,4.3119,0,4.2126,4.2241,4.2268,4.2348,4.2475,4.2483,4.2609,4.2642,4.2697,4.2783,4.2766,4.2847,4.2863,4.2947,4.296,4.3085,4.3108,4.3121,4.3123,4.3121,4.3119,4.3152,4.314,4.3127,4.3125,4.3124,4.3123,0,4.2309,4.2333,4.2472,4.2537,4.2556,4.2647,4.2701,4.2778,4.2801,4.2909,4.2935,4.2972,4.307,4.3092,4.3209,4.3217,4.3365,4.3356,4.3342,4.334,4.3427,4.3418,4.371,4.3748,4.3509,4.3511,4.3513,0,4.2438,4.2525,4.2598,4.2653,4.2692,4.2783,4.2839,4.285,4.2909,4.2991,4.3058,4.3153,4.323,4.3387,4.3424,4.3512,4.3504,4.3601,4.3517,4.3512,4.3502,4.3496,4.3504,4.3616,4.3619,4.3621,4.3622,0,4.2663,4.2669,4.2751,4.2836,4.2903,4.2971,4.3036,4.3083,4.3102,4.317,4.3268,4.3328,4.3445,4.3539,4.3628,4.3665,4.3647,4.3648,4.3673,4.3672,4.3658,4.3664,4.3382,4.3641,4.3639,4.3638,4.3637,4.3636,4.2821,4.2896,4.2958,4.3049,4.3098,4.3159,4.3233,4.3264,4.3346,4.3442,4.3444,4.3551,4.3614,4.373,4.3773,4.3856,4.3826,4.3863,4.3872,4.388,4.3887,4.3647,4.3873,4.3872,4.3872,4.3872,4.3871,0,4.3043,4.3081,4.3164,4.3254,4.3325,4.33,4.337,4.3431,4.3525,4.3585,4.366,4.3772,4.3863,4.3907,4.3996,4.4054,4.4048,4.4077,4.4072,4.408,4.391,4.3878,4.4081,4.4081,4.408,4.408,4.408,4.408,4.3166,4.3291,4.3304,4.3453,4.349,4.3594,4.3635,4.369,4.3738,4.3863,4.3938,4.3965,4.4018,4.4111,4.4192,4.4203,4.4235,4.4268,4.4275,4.4114,4.4093,4.4072,4.4042,4.4276,4.4276,4.4438,4.4439,4.444]},{"header":{"parameterUnit":"m.s-1","parameterCategory":1,"la1":30.2991,"la2":30.254,"lo1":-89.0895,"lo2":-89.0444,"dy":0.0017,"dx":0.0017,"nx":28,"ny":28,"refTime":"2024-07-12T03:00:00:Z","depth":0,"parameterNumber":3,"parameterNumberName":"V-component_of_WINDS"},"data":[0,0,0,0,0,0,0,0,0,0,0,0,0,0,0,0,0,0,0,0,0,0,0,0,0,0,0,0,0,0,0,0,0,0,0,0,0,0,0,0,0,0,0,0,0,0,0,0,0,0,0,0,0,0,0,0,0,0,0.7163,0.7162,0,0.7127,0.7126,0.7126,0.708,0.708,0.7079,0.7078,0.7042,0.7041,0.7041,0,0,0,0,0,0,0,0,0,0,0,0,0,0.7192,0.7191,0.7163,0.7162,0.7162,0.7127,0.7126,0.7126,0.7081,0.708,0.7079,0.7078,0.7042,0.7042,0.7041,0,0,0,0,0,0,0,0,0,0,0,0,0,0.717,0.7191,0.7163,0.7135,0.7132,0.7127,0.7126,0.7125,0.7081,0.708,0.7079,0.7078,0.7042,0.7042,0.7041,0.706,0,0,0.704,0.704,0,0,0,0,0,0,0,0,0.7171,0.7169,0.714,0.7137,0.7134,0.7107,0.7123,0.7104,0.7081,0.71,0.7078,0.7077,0.7064,0.7062,0.7058,0.7058,0.7057,0.704,0.7039,0.7039,0.7039,0,0,0,0,0,0,0,0.7173,0.717,0.7148,0.7139,0.7136,0.7124,0.712,0.7119,0.7089,0.7099,0.7095,0.7092,0.7063,0.7058,0.7056,0.7056,0.704,0.7039,0.7039,0.7039,0.7068,0.7069,0,0,0,0,0,0,0.7178,0.7172,0.715,0.7147,0.715,0.7124,0.712,0.7117,0.7089,0.7083,0.7092,0.709,0.7059,0.7057,0.7055,0.7074,0.7039,0.7039,0.7039,0.7067,0.7069,0.707,0,0,0,0,0,0,0.7179,0.7177,0.7151,0.7158,0.7154,0.7125,0.7122,0.7116,0.7112,0.7084,0.7079,0.7094,0.7058,0.7056,0.7059,0.7072,0.7039,0.7038,0.7066,0.7068,0.7069,0.7113,0,0,0,0,0,0,0.718,0.7177,0.7185,0.7159,0.7154,0.7156,0.7123,0.7117,0.7111,0.7107,0.7084,0.7079,0.7057,0.7059,0.7058,0.7071,0.7038,0.7065,0.7067,0.7069,0.7111,0.7116,0.7121,0,0,0,0,0,0.7181,0.7199,0.7185,0.7183,0.7163,0.7157,0.7154,0.7129,0.7113,0.7119,0.7101,0.708,0.7071,0.706,0.7058,0.7071,0.7064,0.7066,0.7069,0.7108,0.7115,0.7121,0,0,0,0,0,0,0.7228,0.7195,0.718,0.719,0.7176,0.7149,0.7157,0.7137,0.7128,0.7125,0.7094,0.7089,0.7096,0.7084,0.7072,0.7087,0.7064,0.7066,0.7095,0.7101,0.7106,0.7109,0.7037,0,0,0,0,0,0.7239,0.7237,0.7209,0.722,0.7214,0.7187,0.7183,0.7165,0.715,0.7144,0.7126,0.7112,0.7106,0.7103,0.7096,0.7108,0.7102,0.7116,0.7121,0.7126,0.7128,0.7132,0.7138,0.7078,0.7078,0.7078,0,0,0.7262,0.7244,0.7245,0.7229,0.7216,0.7214,0.7182,0.7182,0.718,0.7144,0.7145,0.7132,0.7114,0.7121,0.7124,0.7112,0.7143,0.7129,0.7133,0.7132,0.7135,0.7141,0.7146,0.7079,0.7079,0.7079,0,0,0.7304,0.7291,0.7298,0.7286,0.7267,0.7248,0.725,0.7225,0.7215,0.7215,0.7188,0.7185,0.7176,0.7164,0.7156,0.7191,0.7171,0.719,0.7218,0.7222,0.7227,0.7231,0.7243,0.7247,0.7192,0.7192,0.7192,0,0.7336,0.7332,0.7304,0.7305,0.7298,0.7265,0.7271,0.7261,0.7241,0.7237,0.7223,0.7209,0.7195,0.7199,0.7207,0.7203,0.7203,0.7193,0.7228,0.7232,0.7236,0.7246,0.7251,0.7195,0.7194,0.7194,0.7194,0,0.7371,0.7369,0.7377,0.7358,0.7352,0.7356,0.7328,0.7325,0.7307,0.729,0.729,0.7272,0.726,0.7259,0.7242,0.726,0.7252,0.7234,0.721,0.7244,0.7254,0.7258,0.7198,0.7197,0.7197,0.7196,0,0,0.7442,0.7406,0.741,0.74,0.7376,0.7373,0.7375,0.7363,0.7361,0.7348,0.7348,0.734,0.7322,0.7314,0.7294,0.7298,0.7326,0.7279,0.7278,0.7288,0.7343,0.7357,0.7362,0.7312,0.7312,0.7313,0.7344,0,0.7479,0.7481,0.7455,0.7463,0.746,0.7427,0.7428,0.7413,0.7397,0.7391,0.7372,0.7367,0.7345,0.7339,0.7341,0.7322,0.7336,0.7319,0.7311,0.7311,0.7317,0.7367,0.7382,0.7413,0.7348,0.7349,0.7349,0,0.7523,0.7511,0.7519,0.7493,0.7491,0.7493,0.7478,0.7474,0.7456,0.7443,0.7433,0.741,0.7409,0.7387,0.7384,0.7373,0.7368,0.7358,0.7359,0.7357,0.7332,0.7367,0.7422,0.7427,0.7355,0.7354,0.7354,0,0.7573,0.756,0.7562,0.7555,0.7525,0.7526,0.7514,0.7494,0.7488,0.7476,0.7471,0.7459,0.7452,0.7443,0.7417,0.7403,0.7417,0.7393,0.7406,0.7407,0.7411,0.7411,0.7466,0.7408,0.7408,0.7408,0.7408,0,0.7617,0.7623,0.7584,0.7586,0.7591,0.756,0.7566,0.755,0.7533,0.753,0.7501,0.7499,0.7465,0.7459,0.7439,0.744,0.7437,0.7426,0.7421,0.7429,0.743,0.7425,0.7422,0.7409,0.7409,0.7409,0.7409,0,0.7674,0.7648,0.7649,0.762,0.7612,0.7617,0.7592,0.7592,0.7573,0.757,0.7567,0.7537,0.7529,0.7502,0.7487,0.7473,0.7479,0.7469,0.7485,0.7482,0.7496,0.7495,0.755,0.7555,0.7495,0.7495,0.7496,0,0.7704,0.7707,0.7678,0.7674,0.7663,0.7657,0.765,0.762,0.7614,0.7592,0.7594,0.7583,0.7573,0.756,0.7536,0.7524,0.7513,0.7533,0.7511,0.7519,0.7513,0.7513,0.7512,0.7538,0.7539,0.754,0.754,0,0.7759,0.7745,0.7737,0.7723,0.7716,0.7704,0.769,0.7688,0.7654,0.7649,0.7639,0.7631,0.7614,0.7603,0.7587,0.7573,0.7551,0.7547,0.7549,0.7558,0.7566,0.7561,0.7498,0.7546,0.7545,0.7545,0.7545,0.7544,0.7803,0.7804,0.7783,0.7774,0.776,0.7747,0.7745,0.7725,0.7717,0.7701,0.7684,0.7676,0.7655,0.7631,0.7619,0.7612,0.76,0.7604,0.7604,0.7606,0.7609,0.7568,0.7609,0.7609,0.7608,0.7608,0.7608,0,0.7855,0.784,0.7832,0.7813,0.7805,0.7785,0.7768,0.7763,0.7756,0.7739,0.7729,0.7717,0.7706,0.7681,0.7667,0.7666,0.7655,0.7663,0.7663,0.766,0.7621,0.762,0.7672,0.7672,0.7672,0.7672,0.7672,0.7672,0.7882,0.7882,0.7866,0.7859,0.7843,0.7835,0.7827,0.7815,0.7801,0.7789,0.7779,0.7763,0.7743,0.7727,0.7715,0.7708,0.7703,0.7715,0.7704,0.7669,0.7663,0.7657,0.7656,0.7714,0.7714,0.7743,0.7744,0.7744]}]]